Wind_Speed
36 38 39 39 40 40 39 37 35 33 30 27 25 23 19 18 18 19 21 23 25 26 26 27 27 27 27 27 27 27 27 27 27 26 25 23 22 20 20 19 17 16 15
39 39 38 38 38 37 36 35 34 32 30 28 25 23 22 20 19 20 21 23 25 25 25 25 25 26 27 28 28 26 25 25 26 25 24 23 22 21 20 19 17 15 14
34 34 35 35 35 35 35 35 36 35 34 31 28 25 24 24 23 23 23 24 25 26 25 24 24 25 27 28 29 28 26 26 26 26 25 24 23 22 22 21 19 17 16
29 30 31 32 34 36 38 40 40 40 39 36 33 31 29 29 29 29 29 28 28 29 28 27 26 26 27 29 30 30 29 28 28 28 27 26 25 24 24 23 21 20 19
31 33 35 37 39 41 43 45 46 46 44 43 41 39 37 36 35 36 35 35 35 34 33 31 30 30 30 31 32 33 33 32 31 31 30 29 27 26 26 24 22 21 21
35 37 39 41 43 44 46 47 47 47 47 46 45 44 43 42 42 41 41 41 41 41 40 39 37 36 35 35 35 36 36 35 35 34 33 32 29 27 27 26 24 22 21
37 39 40 41 42 43 43 44 44 45 46 47 47 47 47 47 47 46 46 46 47 47 47 46 44 42 41 40 40 39 39 39 38 38 37 36 33 30 28 27 26 24 23
38 39 40 40 40 41 43 44 45 46 47 48 49 49 50 50 51 51 51 51 52 53 53 52 51 49 47 47 45 44 43 43 43 42 41 39 37 34 32 30 28 27 26
39 41 42 43 45 47 49 50 50 48 46 44 43 44 46 48 51 54 56 57 57 58 59 59 58 56 54 52 51 49 48 47 46 46 45 44 42 38 36 33 31 30 29
41 43 45 47 50 53 53 52 50 46 43 41 40 40 40 42 43 46 51 57 61 63 64 64 63 63 61 59 56 55 54 52 50 49 49 48 47 43 40 37 35 32 30
45 47 50 53 55 55 52 49 48 47 47 47 47 47 46 46 46 45 45 47 52 59 66 68 68 68 67 66 64 61 58 55 53 53 52 51 50 48 44 41 38 35 32
49 51 54 57 56 52 48 47 48 49 51 52 54 54 55 53 51 50 49 48 48 50 56 63 69 72 72 71 70 68 65 62 59 57 56 54 53 51 48 45 41 38 34
50 53 57 56 51 47 46 48 50 52 55 57 58 59 60 60 58 56 53 51 51 50 51 53 59 68 74 76 75 73 72 69 66 62 60 58 57 55 52 49 45 41 37
51 55 55 49 44 45 48 50 53 56 59 62 64 64 64 63 62 60 56 53 51 50 50 51 52 56 64 73 78 77 76 74 72 70 66 61 59 56 54 52 48 45 40
54 54 48 42 42 45 48 51 55 59 62 65 67 66 66 64 63 59 55 52 50 49 49 48 49 50 51 57 67 75 77 76 75 73 71 66 61 57 55 54 51 47 43
53 49 42 41 43 46 49 54 58 62 65 66 66 65 63 61 59 55 52 49 48 48 47 47 46 45 44 44 49 57 67 74 76 75 73 71 67 61 56 54 52 50 45
51 45 41 42 44 48 52 57 61 63 64 64 62 60 58 56 53 51 49 47 45 46 47 47 46 44 42 40 38 39 46 56 66 73 74 72 69 65 60 56 53 51 47
49 44 42 43 47 51 56 60 62 63 63 61 61 60 57 54 52 49 46 44 43 45 47 49 47 45 43 40 38 36 36 39 47 58 67 72 71 66 62 58 54 51 48
48 45 44 46 49 53 57 60 62 62 62 63 63 60 56 51 47 43 42 41 41 42 46 49 50 48 45 43 40 39 37 35 36 41 51 61 67 68 65 60 54 51 48
49 46 46 48 51 55 58 61 61 61 62 62 60 56 49 44 38 34 32 33 35 37 43 48 49 50 48 45 42 40 37 35 34 34 38 46 55 63 65 61 56 51 49
49 46 47 49 52 56 59 60 59 60 61 61 58 52 45 39 32 27 25 26 30 34 38 43 47 48 48 47 44 41 38 35 33 32 32 36 43 53 60 60 57 53 50
49 47 47 49 53 56 58 59 58 58 59 58 54 48 42 34 27 23 20 20 22 28 32 38 44 47 48 46 44 42 38 35 32 31 30 31 35 43 53 58 57 54 51
50 47 47 49 52 56 58 58 57 56 57 55 50 45 40 32 25 19 15 13 14 18 26 32 38 42 44 45 43 41 37 34 32 31 28 27 30 37 47 53 55 54 51
50 47 46 48 51 55 57 57 56 55 54 52 48 44 38 32 24 18 14 9 8 12 18 24 32 38 41 41 41 39 35 32 31 30 28 26 27 34 43 50 52 51 49
52 48 46 47 50 53 55 55 54 52 50 49 47 43 39 33 27 20 15 10 5 4 10 16 22 28 33 37 38 35 34 32 31 29 28 26 26 33 43 49 48 47 47
52 48 45 45 48 51 53 54 52 50 48 47 46 42 38 33 29 24 18 13 7 2 3 10 15 21 26 29 31 31 32 33 31 28 26 25 28 36 46 49 48 47 47
Wind_Direction
292 294 297 299 300 302 305 308 313 317 319 320 318 315 307 294 281 272 268 264 260 261 264 265 261 258 256 254 253 251 251 249 246 244 244 244 243 244 248 253 257 260 263
291 292 292 293 295 298 301 304 307 310 311 310 308 304 299 292 280 271 270 267 262 259 261 262 260 257 254 252 252 250 248 245 242 238 238 240 241 242 246 249 252 256 262
289 288 289 289 291 294 297 300 303 304 304 302 297 293 291 287 281 273 269 269 265 261 259 260 260 257 254 252 251 250 246 242 239 238 238 240 241 243 244 247 249 253 258
291 292 293 292 292 293 296 298 300 301 300 298 294 288 284 280 277 274 270 265 261 259 258 260 261 259 255 251 250 250 247 242 239 238 239 241 242 244 245 245 247 250 255
299 300 299 298 298 298 298 299 300 300 299 296 293 288 283 278 274 270 266 263 261 259 258 259 260 259 256 252 249 248 247 244 240 238 239 241 243 244 246 246 247 251 254
303 301 300 299 298 298 298 298 298 297 296 294 291 288 283 279 274 269 264 260 258 256 256 256 256 255 254 252 249 247 245 244 241 239 238 239 241 243 246 249 250 252 255
304 303 301 300 299 298 297 296 295 293 292 290 288 285 282 279 274 269 264 259 255 252 251 252 252 251 251 250 248 246 244 243 242 240 238 238 238 238 241 247 251 253 254
309 308 306 304 302 300 298 296 293 291 289 287 285 282 279 276 273 270 265 260 255 252 249 248 247 247 247 248 246 244 242 242 241 240 239 239 238 237 238 242 248 253 256
312 311 310 309 307 305 302 301 299 297 295 292 289 286 282 277 272 268 265 261 257 252 250 248 246 244 243 243 244 244 241 240 240 240 239 239 239 238 238 240 244 249 254
315 315 314 312 311 310 309 308 308 308 307 305 302 299 295 290 283 276 268 262 257 254 250 248 246 244 242 241 241 241 240 239 238 239 240 240 240 238 238 240 242 246 250
320 318 317 316 315 314 313 312 312 312 311 309 307 304 301 297 292 287 280 271 263 256 252 248 246 244 243 241 239 238 239 239 238 239 240 240 240 239 239 240 241 243 247
322 320 319 317 316 314 313 313 313 313 312 310 307 304 301 297 293 288 282 276 270 263 256 251 247 244 242 241 239 236 236 237 237 237 239 240 241 240 239 239 239 241 244
321 320 319 317 316 315 315 315 314 313 311 308 305 302 299 296 293 289 283 276 270 264 260 256 251 246 242 240 239 237 236 235 235 236 238 239 240 239 239 238 238 239 241
323 322 320 318 317 316 315 315 314 312 310 307 305 302 299 295 292 288 283 276 269 263 258 255 252 250 246 242 239 237 236 235 236 236 236 235 235 237 238 238 237 238 240
326 323 320 318 317 316 316 316 314 312 310 308 306 303 300 297 292 288 281 274 267 260 254 250 248 247 247 245 243 240 238 236 235 235 235 235 235 234 235 237 237 237 239
328 325 321 319 319 319 318 317 316 315 313 311 308 305 302 298 293 287 279 272 263 254 247 244 241 241 242 243 245 244 241 238 236 234 234 235 235 233 233 234 236 236 237
330 327 324 323 323 322 321 321 320 318 316 314 311 308 305 299 293 286 279 270 261 250 242 237 236 236 237 239 241 242 242 241 240 237 234 234 234 234 233 233 233 234 235
332 329 328 327 326 326 325 325 324 323 321 318 315 311 306 300 292 285 277 268 260 249 239 233 232 233 235 237 239 241 242 241 240 240 238 235 233 233 233 231 231 231 232
336 334 332 331 330 330 330 329 329 328 326 323 320 315 310 304 296 287 276 266 257 247 237 231 229 230 232 235 239 242 242 240 239 239 239 237 235 232 230 230 229 228 228
340 337 334 333 333 334 334 334 334 333 331 330 327 323 318 313 305 292 278 265 253 245 235 229 227 227 230 233 237 241 242 241 238 237 236 236 235 232 229 228 227 226 224
341 338 336 336 336 337 338 339 339 338 338 337 335 331 326 321 313 302 285 267 253 243 235 228 225 225 228 231 234 238 240 239 237 234 233 231 231 230 228 225 223 222 221
343 339 338 338 338 340 342 343 343 344 344 343 342 341 337 331 324 315 299 276 257 240 232 227 222 222 225 228 230 233 235 235 234 231 229 228 227 224 222 220 219 218 218
344 341 340 340 341 344 346 347 348 349 349 351 351 351 349 345 339 332 318 291 262 239 230 225 222 222 223 224 226 228 231 233 230 225 223 225 223 218 214 213 212 213 213
346 343 341 342 344 347 349 350 352 353 355 358 359 359 360 359 355 349 343 323 278 243 230 223 221 220 221 222 222 224 226 226 220 218 219 222 220 213 206 204 204 206 208
347 345 343 343 346 349 351 352 354 356 358 1 4 5 7 8 8 8 4 358 340 262 225 216 214 214 216 217 217 217 218 215 213 214 218 220 218 205 195 193 195 200 204
348 346 344 344 347 351 353 354 357 359 1 3 7 9 12 15 17 17 18 18 15 11 209 207 206 207 206 207 209 210 210 210 211 213 216 218 210 194 187 186 189 195 199
Height
5854 5851 5848 5845 5842 5839 5836 5833 5829 5826 5823 5821 5819 5816 5814 5812 5810 5808 5807 5806 5805 5805 5806 5806 5806 5806 5807 5808 5808 5809 5810 5812 5814 5816 5818 5820 5822 5823 5825 5826 5826 5826 5826
5847 5844 5841 5839 5836 5833 5830 5826 5823 5821 5818 5816 5814 5812 5810 5808 5806 5804 5803 5801 5800 5799 5798 5798 5798 5799 5800 5801 5802 5803 5804 5806 5808 5810 5812 5815 5817 5818 5819 5821 5821 5822 5822
5840 5837 5834 5832 5829 5825 5822 5819 5816 5813 5811 5809 5808 5806 5805 5803 5801 5800 5798 5796 5795 5793 5792 5791 5791 5791 5792 5794 5795 5796 5798 5800 5802 5804 5807 5809 5811 5812 5814 5815 5817 5817 5818
5833 5830 5827 5824 5821 5817 5814 5811 5808 5805 5803 5801 5800 5798 5797 5796 5794 5793 5792 5790 5789 5787 5785 5785 5784 5784 5785 5786 5787 5789 5791 5794 5796 5798 5800 5802 5804 5806 5808 5810 5812 5813 5813
5826 5823 5820 5816 5812 5808 5805 5801 5798 5796 5793 5791 5790 5788 5787 5785 5784 5784 5783 5781 5780 5779 5778 5777 5777 5777 5778 5778 5779 5781 5783 5786 5789 5791 5793 5796 5797 5799 5801 5804 5806 5807 5808
5820 5817 5813 5808 5804 5800 5796 5792 5788 5785 5781 5778 5776 5774 5773 5772 5771 5770 5770 5769 5768 5768 5768 5768 5768 5768 5769 5769 5770 5772 5774 5777 5780 5783 5786 5789 5791 5792 5794 5797 5799 5801 5802
5812 5808 5804 5800 5795 5791 5787 5782 5778 5774 5769 5765 5761 5758 5756 5755 5754 5754 5754 5754 5753 5753 5754 5755 5756 5757 5758 5759 5760 5762 5764 5767 5771 5774 5778 5781 5783 5785 5788 5790 5791 5793 5795
5805 5800 5795 5790 5786 5781 5776 5771 5766 5761 5756 5751 5747 5743 5740 5737 5736 5736 5736 5736 5736 5737 5737 5738 5740 5743 5745 5747 5749 5751 5754 5756 5760 5764 5768 5771 5774 5777 5780 5783 5785 5787 5788
5798 5792 5786 5779 5773 5767 5760 5754 5749 5744 5740 5735 5731 5726 5723 5720 5718 5717 5716 5716 5717 5718 5719 5720 5723 5726 5729 5732 5735 5738 5741 5744 5748 5752 5757 5761 5764 5768 5772 5775 5778 5780 5781
5788 5781 5774 5766 5758 5750 5742 5735 5729 5724 5720 5717 5714 5710 5706 5702 5699 5698 5696 5696 5696 5697 5698 5700 5703 5707 5711 5715 5719 5723 5727 5731 5735 5740 5744 5749 5753 5757 5761 5765 5769 5772 5774
5776 5768 5760 5751 5743 5734 5726 5720 5713 5708 5703 5699 5695 5692 5688 5684 5681 5679 5677 5676 5675 5675 5676 5679 5682 5685 5690 5695 5701 5705 5710 5714 5720 5726 5731 5736 5741 5746 5750 5755 5760 5763 5765
5765 5756 5747 5739 5730 5721 5714 5708 5701 5695 5689 5683 5677 5672 5668 5665 5662 5659 5657 5655 5655 5654 5654 5656 5659 5663 5667 5673 5680 5686 5692 5697 5704 5710 5717 5722 5727 5733 5738 5744 5749 5753 5756
5757 5747 5737 5727 5718 5710 5703 5696 5689 5682 5675 5668 5660 5654 5647 5642 5639 5636 5634 5633 5633 5633 5633 5634 5636 5640 5644 5650 5657 5665 5673 5680 5687 5694 5701 5707 5713 5719 5725 5731 5737 5742 5747
5747 5737 5726 5716 5707 5700 5692 5685 5677 5668 5659 5650 5641 5633 5626 5620 5615 5612 5610 5609 5609 5610 5612 5614 5616 5619 5622 5628 5634 5643 5651 5659 5668 5676 5684 5690 5696 5704 5711 5718 5725 5731 5736
5737 5726 5715 5706 5699 5691 5683 5674 5665 5654 5643 5632 5621 5611 5602 5595 5590 5587 5585 5584 5585 5587 5590 5594 5597 5600 5603 5608 5613 5621 5629 5638 5648 5657 5665 5672 5680 5689 5697 5704 5712 5719 5725
5727 5715 5706 5698 5690 5682 5673 5663 5651 5639 5627 5614 5602 5590 5580 5572 5566 5562 5560 5561 5562 5565 5569 5574 5579 5583 5588 5591 5596 5602 5610 5618 5627 5637 5646 5655 5664 5673 5682 5690 5699 5706 5714
5715 5705 5696 5688 5680 5670 5660 5649 5636 5623 5610 5596 5583 5570 5559 5551 5544 5540 5538 5539 5541 5544 5550 5556 5562 5568 5573 5578 5582 5587 5593 5600 5609 5618 5628 5638 5648 5657 5667 5676 5684 5693 5702
5707 5696 5687 5678 5669 5658 5647 5635 5621 5607 5593 5578 5564 5551 5540 5530 5523 5519 5517 5518 5520 5525 5532 5539 5546 5553 5559 5565 5570 5575 5581 5587 5593 5601 5610 5620 5631 5641 5652 5662 5671 5681 5690
5697 5687 5677 5668 5658 5648 5635 5621 5607 5592 5576 5561 5546 5530 5518 5508 5502 5498 5496 5498 5501 5506 5513 5522 5530 5539 5546 5552 5558 5564 5570 5576 5582 5588 5595 5604 5614 5626 5638 5649 5660 5669 5679
5688 5678 5669 5659 5649 5638 5625 5610 5594 5579 5563 5546 5528 5512 5499 5490 5483 5480 5479 5480 5484 5490 5497 5506 5515 5524 5533 5540 5547 5553 5559 5565 5571 5577 5583 5591 5599 5609 5622 5635 5647 5658 5668
5681 5672 5662 5652 5642 5630 5616 5600 5585 5569 5552 5534 5516 5500 5487 5478 5471 5468 5467 5467 5471 5476 5483 5492 5501 5510 5520 5529 5536 5542 5548 5555 5561 5567 5572 5578 5585 5596 5609 5622 5635 5646 5656
5677 5667 5657 5647 5635 5623 5609 5593 5577 5562 5544 5527 5509 5494 5481 5471 5465 5461 5459 5459 5460 5465 5472 5480 5489 5498 5508 5517 5525 5531 5538 5545 5551 5558 5563 5568 5574 5583 5596 5609 5623 5635 5646
5672 5661 5651 5641 5629 5617 5602 5588 5572 5556 5540 5523 5507 5492 5479 5469 5462 5458 5455 5455 5456 5459 5464 5471 5479 5488 5497 5506 5515 5522 5529 5536 5543 5549 5555 5560 5565 5573 5584 5597 5611 5624 5636
5667 5657 5647 5636 5625 5612 5598 5583 5568 5553 5538 5522 5507 5493 5481 5471 5463 5458 5455 5454 5454 5456 5460 5465 5472 5479 5488 5496 5505 5513 5521 5528 5535 5541 5547 5552 5557 5564 5574 5588 5602 5615 5628
5663 5652 5642 5632 5621 5609 5595 5581 5567 5553 5538 5524 5509 5496 5485 5475 5467 5461 5458 5456 5455 5456 5458 5462 5467 5474 5481 5489 5497 5506 5514 5521 5528 5534 5540 5545 5551 5557 5568 5581 5595 5608 5619
5660 5648 5638 5628 5618 5606 5594 5580 5566 5553 5540 5527 5514 5501 5490 5481 5473 5467 5463 5460 5458 5458 5459 5462 5466 5471 5477 5484 5492 5500 5508 5515 5522 5529 5535 5539 5544 5551 5562 5575 5588 5600 5612